{"data":{"norad_id":67947,"epoch":"2026-05-24T23:42:33.759072Z","epoch_age_seconds":69860,"freshness":"FRESH","line1":"1 67947U 26037R   26144.98789073  .00020013  00000+0  73438-3 0  9992","line2":"2 67947  43.0036 119.4717 0001955 273.4291  86.6337 15.27598000 15016","mean_motion":15.27598,"eccentricity":0.0001955,"inclination_deg":43.0036,"raan_deg":119.4717,"arg_perigee_deg":273.4291,"mean_anomaly_deg":86.6337,"bstar":0.00073438,"rev_number":1501,"period_min":94.265637949251,"perigee_km":481.65384674871,"apogee_km":484.33654943816,"semimajor_km":6861.1321980934,"source":"CELESTRAK","updated_at":"2026-05-25T13:38:21.769423Z"}}